Beverly, MA

5:12 PM EDT on August 19, 2017 (GMT -0400)
Beverly Municipal

Weather History for KBVY - January, 2013

Change the Weather History Date:

Thursday, January 31, 2013

  Actual Average Record
Temperature  
Mean Temperature 47 °F -  
Max Temperature 62 °F 32 °F 57 °F (2016)
Min Temperature 30 °F 16 °F 9 °F (2015)
Degree Days  
Heating Degree Days 18    
Moisture  
Dew Point 36 °F    
Average Humidity 65    
Maximum Humidity 89    
Minimum Humidity 34    
Precipitation  
Precipitation 0.33 in - - ()
Sea Level Pressure  
Sea Level Pressure 29.24 in    
Wind  
Wind Speed 20 mph (WSW)    
Max Wind Speed 37 mph    
Max Gust Speed 50 mph    
Visibility 8 miles    
Events Rain    
Averages and records for this station are not official NWS values.
T = Trace of Precipitation, MM = Missing Value Source: NWS Daily Summary

Daily Weather History Graph

Daily Weather History Graph

Search for Another Location

Airport or City:

Trip Planner

Search our weather history database for the weather conditions in past years. The results will help you decide how hot, cold, wet, or windy it might be!

Date:

Astronomy

Jan. 31, 2013 Rise Set
Actual Time 6:58 AM EST 4:56 PM EST
Civil Twilight 6:28 AM EST 5:26 PM EST
Nautical Twilight 5:54 AM EST 6:00 PM EST
Astronomical Twilight 5:21 AM EST 6:33 PM EST
Moon 10:03 PM EST (1/31) 8:49 AM EST (1/31)
Length of Visible Light 10h 57m
Length of Day
9h 57m
Waning Gibbous, 80% of the Moon is Illuminated
Jan 31
Waning Gibbous
Feb 3
Last Quarter
Feb 10
New
Feb 17
First Quarter
Feb 25
Full

Hourly Weather History & Observations

Time (EST) Temp. Windchill Dew Point Humidity Pressure Visibility Wind Dir Wind Speed Gust Speed Precip Events Conditions
12:35 AM 59.0 °F - 53.6 °F 82% 29.43 in 9.0 mi South 15.0 mph 23.0 mph 0.00 in   Overcast
12:53 AM 57.0 °F - 54.0 °F 89% 29.40 in 6.0 mi South 13.8 mph 23.0 mph 0.00 in Rain Light Rain
1:53 AM 59.0 °F - 55.0 °F 87% 29.34 in 6.0 mi South 20.7 mph 29.9 mph 0.00 in   Overcast
2:53 AM 61.0 °F - 55.9 °F 83% 29.27 in 7.0 mi South 27.6 mph 39.1 mph 0.01 in   Overcast
3:53 AM 62.1 °F - 55.9 °F 80% 29.18 in 9.0 mi South 27.6 mph 40.3 mph 0.00 in   Overcast
4:53 AM 62.1 °F - 57.0 °F 84% 29.11 in 8.0 mi SSW 32.2 mph 49.5 mph 0.00 in Rain Light Rain
5:53 AM 60.1 °F - 55.9 °F 86% 29.05 in 4.0 mi South 26.5 mph 39.1 mph 0.08 in Rain Rain
6:53 AM 61.0 °F - 57.0 °F 87% 29.02 in 7.0 mi SSW 26.5 mph 43.7 mph 0.11 in Rain Light Rain
7:53 AM 60.1 °F - 55.0 °F 83% 28.99 in 10.0 mi South 16.1 mph 25.3 mph 0.03 in Rain Light Rain
8:00 AM 60.8 °F - 55.4 °F 82% 29.00 in 10.0 mi South 16.1 mph - 0.00 in Rain Light Rain
8:53 AM 57.0 °F - 53.1 °F 87% 28.95 in 10.0 mi South 16.1 mph 26.5 mph 0.01 in   Overcast
9:53 AM 51.1 °F - 44.1 °F 77% 29.00 in 1.2 mi West 36.8 mph 48.3 mph 0.05 in Rain Light Rain
10:01 AM 46.4 °F 38.1 °F 39.2 °F 76% 29.03 in 1.2 mi West 24.2 mph 47.2 mph 0.01 in Rain Light Rain
10:04 AM 46.4 °F 38.1 °F 39.2 °F 76% 29.04 in 3.0 mi West 24.2 mph 43.7 mph 0.02 in Rain Light Rain
10:53 AM 46.0 °F 38.5 °F 39.0 °F 76% 29.07 in 10.0 mi West 19.6 mph 28.8 mph 0.04 in   Mostly Cloudy
11:53 AM 46.9 °F - 30.9 °F 54% 29.12 in 10.0 mi West 23.0 mph 38.0 mph N/A   Mostly Cloudy
12:53 PM 46.9 °F - 27.0 °F 46% 29.15 in 10.0 mi West 26.5 mph 40.3 mph N/A   Clear
1:53 PM 45.0 °F 36.6 °F 25.0 °F 46% 29.19 in 10.0 mi WNW 21.9 mph 33.4 mph N/A   Scattered Clouds
2:53 PM 45.0 °F 36.4 °F 18.0 °F 34% 29.24 in 10.0 mi West 23.0 mph 35.7 mph N/A   Scattered Clouds
3:53 PM 42.1 °F 32.6 °F 16.0 °F 35% 29.29 in 10.0 mi West 23.0 mph 32.2 mph N/A   Scattered Clouds
4:53 PM 39.0 °F 31.8 °F 18.0 °F 43% 29.34 in 10.0 mi West 11.5 mph 21.9 mph N/A   Partly Cloudy
5:53 PM 37.9 °F 28.9 °F 17.1 °F 43% 29.38 in 10.0 mi West 16.1 mph 25.3 mph N/A   Clear
6:53 PM 36.0 °F 28.0 °F 17.1 °F 46% 29.42 in 10.0 mi West 11.5 mph 19.6 mph N/A   Clear
7:53 PM 35.1 °F 27.4 °F 17.1 °F 48% 29.46 in 10.0 mi West 10.4 mph 20.7 mph N/A   Clear
8:53 PM 34.0 °F 24.2 °F 16.0 °F 48% 29.50 in 10.0 mi West 15.0 mph 24.2 mph N/A   Clear
9:53 PM 33.1 °F 21.5 °F 15.1 °F 48% 29.52 in 10.0 mi West 19.6 mph 25.3 mph N/A   Clear
10:53 PM 32.0 °F 22.5 °F 12.9 °F 45% 29.55 in 10.0 mi West 12.7 mph 25.3 mph N/A   Clear
11:53 PM 30.9 °F 19.4 °F 14.0 °F 50% 29.56 in 10.0 mi West 17.3 mph 23.0 mph N/A   Clear